Location: Newark
(43.6583°N, 1.6617°E)
Time: 07:43:11
(UTC+00:00)

Tiros 1 - Pass Details

Date: 02 September 2019
Orbit: 630 x 664 km, 48.4° (Epoch: 20 September)

Event Time Altitude Azimuth Distance (km) Brightness Sun altitude
Rises 21:38:54 0° 270° (W) 2,917 11.0 -30.3°
Reaches altitude 10° 21:41:17 10° 276° (W) 2,009 10.2 -30.6°
Enters shadow 21:44:09 33° 299° (WNW) 1,052 8.6 -30.9°
Maximum altitude 21:45:47 49° 352° (N) 813 - -31.1°
Drops below altitude 10° 21:50:16 10° 68° (ENE) 2,012 - -31.5°
Sets 21:52:40 0° 74° (ENE) 2,923 - -31.8°
